Time,TemperatureF,DewpointF,PressureIn,WindDirection,WindDirectionDegrees,WindSpeedMPH,WindSpeedGustMPH,Humidity,HourlyPrecipIn,Conditions,Clouds,dailyrainin,SoftwareType,DateUTC
2013-05-08 00:10:00,56.3,47.4,30.15,SSW,202,0.0,-999.0,72,-99.99,,,0.00,Acu-Link.com,2013-05-08 04:10:00,
2013-05-08 00:26:00,56.1,47.9,30.14,SSE,157,0.0,-999.0,74,-99.99,,,0.00,Acu-Link.com,2013-05-08 04:26:00,
2013-05-08 00:41:00,55.8,49.4,30.15,SSE,157,0.0,-999.0,79,-99.99,,,0.00,Acu-Link.com,2013-05-08 04:41:00,
2013-05-08 00:56:00,55.4,49.0,30.14,NW,315,0.0,-999.0,79,-99.99,,,0.00,Acu-Link.com,2013-05-08 04:56:00,
2013-05-08 01:12:00,54.9,48.8,30.14,SE,135,0.0,-999.0,80,-99.99,,,0.00,Acu-Link.com,2013-05-08 05:12:00,
2013-05-08 01:27:00,54.5,48.8,30.13,West,270,0.0,-999.0,81,-99.99,,,0.00,Acu-Link.com,2013-05-08 05:27:00,
2013-05-08 01:42:00,54.1,49.7,30.13,SW,225,0.0,-999.0,85,-99.99,,,0.00,Acu-Link.com,2013-05-08 05:42:00,
2013-05-08 01:57:00,54.0,50.5,30.13,West,270,0.0,-999.0,88,-99.99,,,0.00,Acu-Link.com,2013-05-08 05:57:00,
2013-05-08 02:13:00,53.8,50.3,30.12,South,180,0.0,-999.0,88,-99.99,,,0.00,Acu-Link.com,2013-05-08 06:13:00,
2013-05-08 02:28:00,53.4,49.6,30.13,South,180,0.0,-999.0,87,-99.99,,,0.00,Acu-Link.com,2013-05-08 06:28:00,
2013-05-08 02:44:00,53.1,49.9,30.13,NNW,337,0.0,-999.0,89,-99.99,,,0.00,Acu-Link.com,2013-05-08 06:44:00,
2013-05-08 02:59:00,52.9,50.3,30.13,South,180,1.1,-999.0,91,-99.99,,,0.00,Acu-Link.com,2013-05-08 06:59:00,
2013-05-08 03:14:00,52.5,49.7,30.13,SW,225,0.0,-999.0,90,-99.99,,,0.00,Acu-Link.com,2013-05-08 07:14:00,
2013-05-08 03:30:00,52.0,49.2,30.13,SSW,202,0.0,-999.0,90,-99.99,,,0.00,Acu-Link.com,2013-05-08 07:30:00,
2013-05-08 03:45:00,51.6,48.8,30.12,West,270,0.0,-999.0,90,-99.99,,,0.00,Acu-Link.com,2013-05-08 07:45:00,
2013-05-08 04:00:00,51.4,48.9,30.12,SW,225,0.0,-999.0,91,-99.99,,,0.00,Acu-Link.com,2013-05-08 08:00:00,
2013-05-08 04:15:00,51.4,49.2,30.13,West,270,0.0,-999.0,92,-99.99,,,0.00,Acu-Link.com,2013-05-08 08:15:00,
2013-05-08 04:31:00,51.3,49.1,30.13,West,270,0.0,-999.0,92,-99.99,,,0.00,Acu-Link.com,2013-05-08 08:31:00,
2013-05-08 04:46:00,50.4,47.9,30.13,ENE,67,0.0,-999.0,91,-99.99,,,0.00,Acu-Link.com,2013-05-08 08:46:00,
2013-05-08 05:01:00,49.5,47.0,30.13,SW,225,0.0,-999.0,91,-99.99,,,0.00,Acu-Link.com,2013-05-08 09:01:00,
2013-05-08 05:16:00,48.7,45.9,30.14,SSE,157,0.0,-999.0,90,-99.99,,,0.00,Acu-Link.com,2013-05-08 09:16:00,
2013-05-08 05:31:00,48.4,45.6,30.14,SW,225,0.0,-999.0,90,-99.99,,,0.00,Acu-Link.com,2013-05-08 09:31:00,
2013-05-08 05:46:00,48.0,45.5,30.14,NW,315,0.0,-999.0,91,-99.99,,,0.00,Acu-Link.com,2013-05-08 09:46:00,
2013-05-08 06:02:00,48.2,45.7,30.15,NW,315,0.0,-999.0,91,-99.99,,,0.00,Acu-Link.com,2013-05-08 10:02:00,
2013-05-08 06:17:00,49.1,46.9,30.15,WNW,292,0.0,-999.0,92,-99.99,,,0.00,Acu-Link.com,2013-05-08 10:17:00,
2013-05-08 06:32:00,50.5,48.3,30.16,NNW,337,0.0,-999.0,92,-99.99,,,0.00,Acu-Link.com,2013-05-08 10:32:00,
2013-05-08 06:48:00,52.5,49.9,30.16,WNW,292,0.0,-999.0,91,-99.99,,,0.00,Acu-Link.com,2013-05-08 10:48:00,
2013-05-08 07:03:00,54.1,51.2,30.16,WNW,292,0.0,-999.0,90,-99.99,,,0.00,Acu-Link.com,2013-05-08 11:03:00,
2013-05-08 07:18:00,55.8,52.6,30.17,North,0,0.0,-999.0,89,-99.99,,,0.00,Acu-Link.com,2013-05-08 11:18:00,
2013-05-08 07:33:00,56.7,53.2,30.17,NE,45,0.0,-999.0,88,-99.99,,,0.00,Acu-Link.com,2013-05-08 11:33:00,
2013-05-08 07:48:00,59.0,54.5,30.17,NNE,22,2.2,-999.0,85,-99.99,,,0.00,Acu-Link.com,2013-05-08 11:48:00,
2013-05-08 08:04:00,61.3,55.8,30.18,NNE,22,2.2,-999.0,82,-99.99,,,0.00,Acu-Link.com,2013-05-08 12:04:00,
2013-05-08 08:19:00,63.0,56.7,30.18,NNW,337,2.7,-999.0,80,-99.99,,,0.00,Acu-Link.com,2013-05-08 12:19:00,
2013-05-08 08:34:00,64.2,56.5,30.18,NE,45,3.7,-999.0,76,-99.99,,,0.00,Acu-Link.com,2013-05-08 12:34:00,
2013-05-08 08:50:00,66.4,57.9,30.18,East,90,1.7,-999.0,74,-99.99,,,0.00,Acu-Link.com,2013-05-08 12:50:00,
2013-05-08 09:05:00,67.5,57.4,30.18,SE,135,3.2,-999.0,70,-99.99,,,0.00,Acu-Link.com,2013-05-08 13:05:00,
2013-05-08 09:20:00,68.2,57.6,30.18,WNW,292,4.2,-999.0,69,-99.99,,,0.00,Acu-Link.com,2013-05-08 13:20:00,
2013-05-08 09:35:00,70.0,58.1,30.16,NNE,22,3.2,-999.0,66,-99.99,,,0.00,Acu-Link.com,2013-05-08 13:35:00,
2013-05-08 09:51:00,70.3,56.7,30.16,NE,45,6.3,-999.0,62,-99.99,,,0.00,Acu-Link.com,2013-05-08 13:51:00,
2013-05-08 10:06:00,71.6,56.5,30.16,NNW,337,2.2,-999.0,59,-99.99,,,0.00,Acu-Link.com,2013-05-08 14:06:00,
2013-05-08 10:21:00,71.4,55.8,30.16,NNE,22,7.8,-999.0,58,-99.99,,,0.00,Acu-Link.com,2013-05-08 14:21:00,
2013-05-08 10:36:00,71.4,55.4,30.16,NW,315,5.3,-999.0,57,-99.99,,,0.00,Acu-Link.com,2013-05-08 14:36:00,
2013-05-08 10:51:00,72.3,56.2,30.16,ESE,112,2.7,-999.0,57,-99.99,,,0.00,Acu-Link.com,2013-05-08 14:51:00,
2013-05-08 11:07:00,72.7,54.6,30.16,NNE,22,10.4,-999.0,53,-99.99,,,0.00,Acu-Link.com,2013-05-08 15:07:00,
2013-05-08 11:22:00,71.6,54.6,30.16,North,0,3.7,-999.0,55,-99.99,,,0.00,Acu-Link.com,2013-05-08 15:22:00,
2013-05-08 11:37:00,70.9,53.4,30.15,NNE,22,4.2,-999.0,54,-99.99,,,0.00,Acu-Link.com,2013-05-08 15:37:00,
2013-05-08 11:52:00,70.7,54.2,30.15,NNE,22,3.7,-999.0,56,-99.99,,,0.00,Acu-Link.com,2013-05-08 15:52:00,
2013-05-08 12:07:00,69.1,56.0,30.16,NE,45,2.2,-999.0,63,-99.99,,,0.00,Acu-Link.com,2013-05-08 16:07:00,
2013-05-08 12:22:00,64.6,58.3,30.17,WNW,292,2.2,-999.0,80,-99.99,,,0.01,Acu-Link.com,2013-05-08 16:22:00,
2013-05-08 12:38:00,64.4,60.4,30.14,SE,135,1.1,-999.0,87,-99.99,,,0.02,Acu-Link.com,2013-05-08 16:38:00,
2013-05-08 12:53:00,66.9,59.8,30.14,NNE,22,5.8,-999.0,78,-99.99,,,0.02,Acu-Link.com,2013-05-08 16:53:00,
2013-05-08 13:08:00,69.1,59.7,30.14,East,90,3.7,-999.0,72,-99.99,,,0.02,Acu-Link.com,2013-05-08 17:08:00,
2013-05-08 13:23:00,68.7,58.5,30.13,NNW,337,6.3,-999.0,70,-99.99,,,0.02,Acu-Link.com,2013-05-08 17:23:00,
2013-05-08 13:38:00,70.0,59.4,30.13,NNW,337,6.3,-999.0,69,-99.99,,,0.02,Acu-Link.com,2013-05-08 17:38:00,
2013-05-08 13:53:00,70.0,58.9,30.13,NW,315,3.7,-999.0,68,-99.99,,,0.02,Acu-Link.com,2013-05-08 17:53:00,
2013-05-08 14:08:00,68.4,58.2,30.13,NNW,337,7.8,-999.0,70,-99.99,,,0.02,Acu-Link.com,2013-05-08 18:08:00,
2013-05-08 14:23:00,66.4,58.6,30.12,ENE,67,1.7,-999.0,76,-99.99,,,0.02,Acu-Link.com,2013-05-08 18:23:00,
2013-05-08 14:39:00,64.2,59.3,30.12,NNW,337,2.2,-999.0,84,-99.99,,,0.03,Acu-Link.com,2013-05-08 18:39:00,
2013-05-08 14:54:00,64.4,60.4,30.10,NNE,22,2.2,-999.0,87,-99.99,,,0.06,Acu-Link.com,2013-05-08 18:54:00,
2013-05-08 15:10:00,63.1,60.1,30.09,NE,45,1.7,-999.0,90,-99.99,,,0.13,Acu-Link.com,2013-05-08 19:10:00,
2013-05-08 15:25:00,64.6,61.6,30.09,ENE,67,0.0,-999.0,90,-99.99,,,0.13,Acu-Link.com,2013-05-08 19:25:00,
2013-05-08 15:40:00,65.7,62.0,30.08,North,0,2.2,-999.0,88,-99.99,,,0.13,Acu-Link.com,2013-05-08 19:40:00,
2013-05-08 15:55:00,66.6,61.3,30.07,North,0,2.7,-999.0,83,-99.99,,,0.13,Acu-Link.com,2013-05-08 19:55:00,
2013-05-08 16:10:00,66.9,61.6,30.06,NNE,22,0.0,-999.0,83,-99.99,,,0.13,Acu-Link.com,2013-05-08 20:10:00,
2013-05-08 16:26:00,66.0,60.7,30.05,ENE,67,1.1,-999.0,83,-99.99,,,0.13,Acu-Link.com,2013-05-08 20:26:00,
2013-05-08 16:41:00,65.5,59.9,30.06,NNW,337,2.7,-999.0,82,-99.99,,,0.13,Acu-Link.com,2013-05-08 20:41:00,
2013-05-08 16:56:00,65.5,59.9,30.06,ENE,67,2.7,-999.0,82,-99.99,,,0.13,Acu-Link.com,2013-05-08 20:56:00,
2013-05-08 17:11:00,65.7,59.0,30.06,NNE,22,4.2,-999.0,79,-99.99,,,0.13,Acu-Link.com,2013-05-08 21:11:00,
2013-05-08 17:27:00,64.2,58.6,30.07,NNW,337,2.7,-999.0,82,-99.99,,,0.13,Acu-Link.com,2013-05-08 21:27:00,
2013-05-08 17:42:00,61.7,58.4,30.06,North,0,3.7,-999.0,89,-99.99,,,0.22,Acu-Link.com,2013-05-08 21:42:00,
2013-05-08 17:57:00,61.3,58.6,30.06,ENE,67,2.2,-999.0,91,-99.99,,,0.23,Acu-Link.com,2013-05-08 21:57:00,
2013-05-08 18:13:00,61.3,59.0,30.06,West,270,1.7,-999.0,92,-99.99,,,0.23,Acu-Link.com,2013-05-08 22:13:00,
2013-05-08 18:28:00,61.3,59.0,30.06,NW,315,2.2,-999.0,92,-99.99,,,0.23,Acu-Link.com,2013-05-08 22:28:00,
2013-05-08 18:43:00,60.8,58.5,30.05,NW,315,4.7,-999.0,92,-99.99,,,0.23,Acu-Link.com,2013-05-08 22:43:00,
2013-05-08 18:58:00,60.8,58.5,30.05,ENE,67,1.7,-999.0,92,-99.99,,,0.23,Acu-Link.com,2013-05-08 22:58:00,
2013-05-08 19:13:00,60.4,58.1,30.05,NNW,337,4.7,-999.0,92,-99.99,,,0.23,Acu-Link.com,2013-05-08 23:13:00,
2013-05-08 19:28:00,60.3,58.0,30.05,NE,45,4.7,-999.0,92,-99.99,,,0.23,Acu-Link.com,2013-05-08 23:28:00,
2013-05-08 19:43:00,60.1,58.1,30.04,NNE,22,4.2,-999.0,93,-99.99,,,0.23,Acu-Link.com,2013-05-08 23:43:00,
2013-05-08 19:59:00,60.1,57.8,30.04,East,90,3.2,-999.0,92,-99.99,,,0.23,Acu-Link.com,2013-05-08 23:59:00,
2013-05-08 20:14:00,60.1,57.8,30.04,NNE,22,3.2,-999.0,92,-99.99,,,0.23,Acu-Link.com,2013-05-09 00:14:00,
2013-05-08 20:29:00,60.1,58.1,30.03,NNW,337,4.2,-999.0,93,-99.99,,,0.23,Acu-Link.com,2013-05-09 00:29:00,
2013-05-08 20:44:00,60.1,58.1,30.04,NW,315,2.7,-999.0,93,-99.99,,,0.23,Acu-Link.com,2013-05-09 00:44:00,
2013-05-08 21:00:00,59.9,57.9,30.04,SSE,157,0.0,-999.0,93,-99.99,,,0.24,Acu-Link.com,2013-05-09 01:00:00,
2013-05-08 21:15:00,59.7,58.0,30.04,SE,135,0.0,-999.0,94,-99.99,,,0.25,Acu-Link.com,2013-05-09 01:15:00,
2013-05-08 21:30:00,59.7,58.0,30.04,North,0,1.1,-999.0,94,-99.99,,,0.25,Acu-Link.com,2013-05-09 01:30:00,
2013-05-08 21:45:00,59.7,58.0,30.04,NE,45,4.2,-999.0,94,-99.99,,,0.25,Acu-Link.com,2013-05-09 01:45:00,
2013-05-08 22:01:00,59.7,58.0,30.04,NNW,337,0.0,-999.0,94,-99.99,,,0.25,Acu-Link.com,2013-05-09 02:01:00,
2013-05-08 22:16:00,59.7,58.0,30.04,NNE,22,4.2,-999.0,94,-99.99,,,0.25,Acu-Link.com,2013-05-09 02:16:00,
2013-05-08 22:31:00,59.5,57.8,30.04,NNE,22,1.1,-999.0,94,-99.99,,,0.26,Acu-Link.com,2013-05-09 02:31:00,
2013-05-08 22:46:00,59.4,57.7,30.04,West,270,0.0,-999.0,94,-99.99,,,0.26,Acu-Link.com,2013-05-09 02:46:00,
2013-05-08 23:02:00,59.2,57.8,30.03,ESE,112,0.0,-999.0,95,-99.99,,,0.26,Acu-Link.com,2013-05-09 03:02:00,
2013-05-08 23:17:00,59.2,57.8,30.02,SW,225,2.2,-999.0,95,-99.99,,,0.26,Acu-Link.com,2013-05-09 03:17:00,
2013-05-08 23:32:00,59.0,57.6,30.01,NNW,337,0.0,-999.0,95,-99.99,,,0.26,Acu-Link.com,2013-05-09 03:32:00,
2013-05-08 23:47:00,58.8,57.4,30.01,WNW,292,2.7,-999.0,95,-99.99,,,0.26,Acu-Link.com,2013-05-09 03:47:00,